Location: Albuquerque Trailhead
(34.7934°N, 106.3736°W)
Time: 00:45:17
(UTC+00:00)

IRIDIUM 114 - Pass Details

Date: 20 June 2021
Orbit: 776 x 779 km, 86.4° (Epoch: 01 August)

Event Time Altitude Azimuth Distance (km) Brightness Sun altitude
Rises 09:31:13 0° 358° (N) 3,265 8.4 -22.5°
Reaches altitude 10° 09:33:34 10° 359° (N) 2,334 7.5 -22.2°
Maximum altitude 09:38:48 86° 86° (E) 784 4.3 -21.6°
Enters shadow 09:40:55 37° 176° (S) 1,185 4.9 -21.3°
